Temperature
14 15 15 15 12 10 12 13 13 14 14 15 16 16 15 15 16 17 17 17 17 17 16 16 16 16 16 16 16 16 16 16 16 16 16 16 16 15 15 15 15 15 15 15 15 15 15 15 15
14 14 15 14 11 11 12 12 12 13 15 16 16 16 16 16 16 17 17 17 17 16 16 16 15 16 16 16 16 16 15 15 15 15 16 15 15 15 15 15 15 15 15 15 15 15 15 15 15
14 14 14 10 10 11 13 13 12 14 16 16 15 16 16 16 16 16 17 16 16 16 16 16 15 15 15 16 16 15 15 15 15 15 15 15 15 15 15 15 15 15 15 15 15 15 14 14 14
14 14 13 10 11 11 12 14 13 14 15 15 15 15 15 15 16 16 16 16 16 16 15 15 15 15 15 15 15 15 15 15 15 15 15 15 15 15 15 15 15 15 15 14 14 14 14 14 14
13 13 10 10 10 11 11 12 13 14 14 15 15 14 15 15 15 16 16 16 16 15 15 15 15 15 15 15 15 15 15 15 15 15 15 15 15 15 14 14 14 14 14 14 14 14 14 14 14
13 10 9 10 11 11 11 13 14 13 14 14 15 14 14 15 15 15 15 15 15 15 14 14 14 15 15 14 15 15 15 15 15 15 14 14 14 14 14 14 14 14 14 14 14 14 14 14 13
11 8 9 10 10 11 12 13 13 13 13 14 15 13 14 15 15 15 15 15 14 14 14 14 14 14 14 14 14 14 14 14 14 14 14 14 14 14 14 14 14 14 14 14 14 13 13 13 13
12 8 9 9 10 11 12 13 14 14 13 15 15 13 14 15 15 14 14 14 14 14 14 14 14 14 14 14 14 14 14 14 14 14 14 14 14 14 14 14 13 13 13 13 13 13 13 13 13
11 8 9 9 10 11 12 12 13 14 14 13 14 14 14 15 14 14 14 14 14 14 13 14 14 14 13 13 14 13 14 14 14 14 14 13 13 13 13 13 13 13 13 13 13 13 13 13 13
10 8 9 10 10 11 12 12 13 13 12 12 13 13 14 14 14 14 13 13 13 13 13 13 13 13 13 13 13 13 13 13 13 13 13 13 13 13 13 13 13 13 13 13 13 13 13 13 13
9 8 9 10 11 11 11 12 12 12 11 12 12 13 13 13 13 13 13 13 13 13 13 13 13 13 13 13 13 13 13 13 13 13 13 13 13 13 12 12 12 12 12 12 12 12 12 12 12
8 8 9 10 11 11 11 11 11 11 12 13 13 13 13 13 13 13 13 13 13 13 13 13 13 13 13 13 13 13 13 12 13 13 13 12 12 12 12 12 12 12 12 12 12 12 12 12 12
8 8 9 10 10 10 10 10 10 10 12 12 12 12 12 12 12 12 12 12 12 12 13 12 12 12 12 12 12 12 12 12 12 12 12 12 12 12 12 12 12 12 11 11 11 11 11 11 11
8 8 8 9 9 9 9 9 9 10 11 11 11 11 11 11 11 12 12 12 12 12 12 12 12 12 12 12 12 12 12 12 12 12 12 12 12 12 12 11 11 11 11 11 11 11 11 11 11
8 7 7 8 8 8 9 8 8 9 10 10 10 10 10 11 11 11 11 11 12 12 12 12 12 12 12 12 12 12 12 12 12 11 11 11 11 11 11 11 11 11 11 10 10 10 10 10 10
7 7 7 7 7 8 8 7 8 9 9 9 9 9 9 10 10 10 11 11 11 11 11 11 11 11 11 11 11 11 11 11 11 11 11 11 11 11 11 11 10 10 10 10 10 10 10 10 10
6 5 6 7 7 7 7 6 7 8 8 7 8 8 8 9 9 10 10 10 11 11 11 11 11 11 11 11 11 11 11 11 11 11 11 11 11 11 10 10 10 10 10 10 9 9 9 9 9
5 4 5 5 6 6 5 5 6 6 6 6 6 7 7 7 8 9 9 10 10 10 10 10 10 10 11 10 10 10 10 10 10 10 10 10 10 10 10 10 10 9 9 9 9 9 9 9 9
5 5 4 5 6 5 5 5 5 5 5 4 5 5 6 6 7 8 9 9 9 10 10 10 10 10 10 10 10 10 10 10 10 10 10 10 10 10 10 9 9 9 9 9 9 9 8 8 8
4 4 4 5 5 5 4 4 4 4 4 4 4 4 4 5 6 7 8 8 9 9 9 9 9 9 10 10 10 10 10 9 9 9 9 9 9 9 9 9 9 9 9 9 8 8 8 8 8
4 4 4 4 4 5 4 4 4 4 4 4 4 4 4 4 5 6 7 7 8 8 9 9 9 9 9 9 9 9 9 9 9 9 9 9 9 9 9 9 9 8 8 8 8 8 8 8 8
4 4 4 4 4 3 4 4 3 3 3 3 3 3 3 4 4 5 6 7 7 7 8 8 8 8 9 9 8 8 8 9 9 9 8 8 8 8 8 8 8 8 8 8 8 8 8 7 7
3 4 4 4 3 3 3 3 2 2 2 2 2 2 3 3 4 4 5 6 6 7 7 7 8 8 8 8 8 8 8 8 8 8 8 8 8 8 8 8 8 8 7 7 7 7 7 7 7
3 3 3 3 2 3 3 3 2 1 2 2 2 2 2 3 3 4 4 5 6 6 6 7 7 7 7 7 7 7 7 7 7 7 7 7 7 7 7 7 7 7 7 7 7 7 7 7 7
2 2 2 2 2 2 2 2 1 1 1 1 1 1 1 2 2 3 3 4 5 5 5 6 6 6 6 7 7 7 7 7 7 7 7 7 7 7 7 7 7 7 7 7 7 7 7 7 7
2 2 2 2 2 2 2 1 0 1 1 1 1 1 1 1 1 2 3 3 4 4 4 5 5 5 6 6 6 6 6 6 6 6 6 6 7 7 7 6 6 6 6 6 6 6 6 6 6
1 1 1 1 0 1 1 -0 -0 0 -0 -0 -0 -0 -0 0 1 1 2 2 3 3 4 4 4 5 5 5 5 5 6 6 5 6 6 6 6 6 6 6 6 6 6 6 6 6 6 6 6
1 0 0 0 1 1 1 -0 -0 -1 -1 -1 -1 -1 -1 -0 -0 0 1 1 2 2 3 3 3 4 4 4 4 4 5 5 5 5 5 5 5 5 5 5 5 5 5 5 5 6 5 5 6
-0 -0 -0 -0 0 0 -0 -0 -1 -1 -1 -1 -2 -1 -1 -1 -1 -1 -0 0 1 2 2 2 2 3 3 3 4 4 4 4 4 4 4 5 5 5 5 5 5 5 5 5 5 5 5 5 5
-1 -1 -2 -1 -1 -1 -1 -1 -1 -2 -2 -2 -2 -2 -2 -1 -1 -1 -1 -0 0 1 1 1 2 2 2 3 3 3 3 3 3 3 4 4 4 4 4 4 4 5 5 5 5 5 5 5 5
Wind_Speed
4 4 3 4 5 3 5 6 4 3 4 3 3 4 6 6 5 4 0 5 8 9 11 14 16 16 15 15 15 14 14 14 14 14 14 14 13 13 13 13 13 13 13 13 14 14 15 15 15
2 2 5 5 4 3 7 6 6 6 4 2 2 3 3 3 1 2 3 4 8 10 11 13 15 15 15 15 15 14 14 14 13 13 13 13 13 13 13 13 13 13 13 14 14 14 14 15 15
2 4 4 4 5 8 7 5 7 4 3 2 2 1 3 2 1 3 3 7 8 8 10 13 16 15 15 15 15 15 14 14 13 13 13 13 13 13 13 13 13 13 13 13 13 13 14 14 14
3 4 4 3 8 8 7 3 3 1 0 2 3 1 1 1 2 3 5 8 9 7 9 13 16 15 15 15 15 14 14 14 13 13 12 12 12 13 13 13 13 13 13 13 13 13 13 13 13
4 4 2 3 8 6 5 4 2 2 2 2 4 3 1 3 2 5 7 8 9 7 8 11 14 14 14 15 14 14 14 13 13 13 12 12 12 12 13 13 13 13 13 13 12 12 13 13 13
4 4 3 7 9 5 4 4 2 2 2 2 5 4 2 2 4 5 7 7 7 7 6 9 13 14 13 14 13 13 13 13 13 12 12 12 12 13 13 13 13 13 12 12 12 12 12 12 12
5 4 6 6 5 5 4 3 4 4 4 4 5 5 1 0 2 5 6 7 6 6 6 6 8 11 12 13 13 12 12 12 12 12 12 12 12 13 13 13 12 12 12 12 12 12 12 12 13
5 4 4 5 6 6 3 2 2 5 4 2 5 6 5 4 5 6 7 6 6 5 5 5 6 8 8 10 12 12 11 11 12 12 12 12 12 12 12 12 12 12 11 11 11 11 11 12 12
4 3 8 8 7 5 2 1 1 1 3 1 1 3 2 7 8 8 6 4 4 4 3 4 5 6 7 8 9 10 10 10 11 11 12 11 10 10 10 11 11 11 11 11 11 11 12 12 11
4 7 11 6 5 3 2 2 1 2 1 1 1 2 4 8 9 9 8 7 6 5 3 3 4 5 6 6 8 8 8 9 9 10 10 10 10 9 9 10 11 11 11 11 11 11 12 11 10
5 8 6 5 4 2 2 1 1 4 3 5 5 5 7 7 7 8 8 7 7 6 4 3 4 5 5 5 6 6 7 7 8 9 10 10 9 8 8 8 8 9 9 9 10 10 10 10 9
5 6 5 4 3 2 3 2 2 4 5 3 5 7 9 9 9 9 8 7 6 6 5 4 4 4 5 6 5 6 6 6 6 8 10 9 7 6 6 6 7 7 7 8 8 9 9 10 9
6 6 5 5 4 4 2 3 3 5 5 1 3 7 9 8 7 6 5 5 5 6 5 4 4 5 5 5 5 5 5 5 6 7 8 9 7 5 5 5 6 7 7 7 7 7 8 8 8
5 5 5 5 5 4 4 5 3 6 2 1 4 6 7 7 6 4 4 4 5 5 5 4 5 5 6 5 4 4 5 6 6 6 7 9 8 7 6 5 5 6 7 7 7 7 7 6 7
3 4 6 5 5 4 2 6 7 5 2 3 3 4 4 4 4 5 5 5 5 4 4 4 5 5 5 5 5 5 5 6 5 5 6 7 8 8 7 5 4 5 7 8 8 7 7 6 5
1 3 6 5 4 3 5 10 5 2 4 3 3 3 3 2 2 2 2 3 3 3 4 4 4 5 5 4 4 4 5 5 5 5 5 6 7 8 7 5 4 6 8 7 6 5 4 4 3
2 5 7 4 4 3 5 7 4 0 3 2 2 2 1 0 1 1 1 2 3 3 4 4 4 5 5 4 4 4 4 4 4 5 5 5 6 7 7 5 5 7 7 5 5 3 3 4 4
5 4 4 5 2 3 4 5 2 2 2 1 0 1 1 1 1 1 1 2 2 3 3 4 4 4 4 4 4 3 3 3 3 4 4 5 6 7 7 5 6 7 5 4 4 5 4 4 4
3 4 5 5 3 3 5 4 3 1 3 2 1 1 1 1 1 2 2 3 3 3 3 3 3 4 4 3 3 3 2 2 2 2 4 5 6 7 6 4 5 5 4 5 6 4 5 3 3
3 5 5 3 1 3 2 3 2 1 2 2 1 1 1 2 3 3 3 3 2 2 2 2 3 3 4 3 2 2 2 2 1 2 3 4 5 6 6 5 4 5 5 5 5 5 4 2 3
5 5 5 4 1 1 1 3 1 1 2 4 3 2 2 1 1 2 2 2 2 1 1 1 2 2 3 3 3 3 3 2 1 1 1 2 5 6 6 6 6 5 5 6 5 6 6 4 2
7 4 3 3 1 2 2 3 2 1 2 4 4 4 3 3 2 1 1 2 1 1 1 1 1 2 2 3 4 4 3 2 3 2 2 2 4 5 6 6 6 5 4 5 6 5 4 6 4
4 3 3 3 3 2 2 3 3 1 1 3 4 4 4 3 2 1 1 1 1 2 1 1 1 1 2 3 4 4 3 2 1 1 2 2 2 3 5 6 6 5 4 5 5 5 5 4 5
2 1 1 1 2 4 4 4 3 1 2 3 3 4 4 4 3 3 3 3 3 3 3 2 2 1 1 2 3 4 4 3 3 3 3 2 2 2 4 5 6 6 5 5 5 6 6 5 5
2 2 1 1 1 4 3 3 2 2 2 1 2 4 4 4 3 3 4 4 3 3 3 3 2 2 1 1 2 3 4 4 4 4 4 3 2 3 4 4 4 5 5 6 6 5 5 6 6
2 3 3 3 3 2 2 3 1 3 4 4 3 4 5 5 5 4 4 3 3 3 3 2 2 2 1 0 1 2 2 2 2 3 3 3 3 3 3 4 5 5 6 6 6 4 5 5 6
0 1 1 2 0 0 1 1 3 5 7 8 7 6 6 6 6 6 5 5 4 3 3 2 2 2 2 1 1 1 2 2 2 2 2 2 2 2 3 4 4 5 6 6 6 5 5 5 6
1 1 2 2 2 2 1 1 2 5 6 7 7 6 6 6 6 6 6 6 5 4 4 3 3 2 2 2 1 1 1 1 2 2 3 3 3 2 3 3 4 4 5 5 5 4 5 6 5
4 2 0 1 1 2 1 2 2 2 3 4 5 5 5 5 5 5 6 5 5 5 4 4 3 3 3 2 1 1 1 1 1 2 3 3 3 3 3 4 4 5 5 5 6 6 6 6 6
3 2 1 2 1 1 2 2 4 3 4 4 5 6 5 5 5 5 5 6 6 5 5 4 4 3 3 3 2 1 1 1 1 2 2 3 3 3 4 4 4 5 5 5 6 7 6 7 7
Wind_Direction
355 42 65 58 59 56 231 234 214 217 223 219 176 161 169 170 169 192 112 138 133 143 156 156 152 151 147 144 140 135 132 129 127 126 125 125 123 122 119 116 114 110 107 104 101 98 97 96 96
25 63 56 65 117 206 250 230 214 215 201 144 119 131 146 213 221 130 137 157 141 144 151 153 152 151 149 145 142 140 137 134 130 127 127 125 122 121 119 117 115 112 108 105 102 100 99 99 97
61 56 89 96 164 202 224 222 217 239 227 164 134 146 171 202 180 181 186 154 138 139 147 154 153 151 150 146 143 142 140 136 132 129 127 125 124 122 120 118 115 113 110 106 104 102 101 101 99
76 53 63 119 222 225 219 224 202 227 211 173 152 170 253 321 217 186 143 139 135 134 142 154 154 153 150 148 146 144 142 138 135 132 129 128 127 125 122 120 117 113 110 107 104 102 104 103 101
61 88 117 233 239 245 241 246 222 200 209 184 156 168 267 347 57 119 129 134 137 133 138 152 155 154 152 150 147 145 144 143 140 136 133 131 130 128 124 122 119 115 112 108 106 104 106 104 104
70 87 161 228 240 255 250 226 198 214 222 174 153 157 225 25 106 126 127 130 133 133 133 147 152 152 152 151 148 146 146 145 143 139 135 129 126 125 124 123 122 118 115 112 108 105 106 104 103
130 141 204 221 239 251 237 191 186 200 214 210 168 152 236 205 141 124 119 117 115 116 116 122 137 144 149 151 148 147 146 144 142 137 133 128 125 124 124 124 123 121 117 115 111 109 107 103 101
141 141 207 220 221 239 225 198 207 191 216 181 150 160 207 198 139 115 105 103 107 106 107 109 118 125 131 140 146 145 143 142 139 134 129 125 123 124 123 122 124 123 120 116 113 113 109 104 102
115 156 221 217 206 230 219 194 286 157 135 130 200 201 208 133 127 121 112 109 119 117 105 106 106 112 120 127 137 138 137 138 134 130 127 121 116 118 120 121 122 121 121 119 116 116 111 104 101
152 208 226 212 198 204 217 197 226 106 117 189 325 26 103 128 141 145 151 159 160 158 141 121 118 116 118 122 123 124 123 124 127 126 123 118 114 113 116 121 121 117 116 118 117 115 110 101 98
187 218 229 228 221 213 222 228 256 156 215 210 195 172 141 144 155 162 167 170 172 167 156 147 136 127 122 118 121 119 119 118 120 126 128 122 114 110 108 107 108 108 110 107 110 105 102 102 101
214 238 229 235 224 226 223 214 237 206 224 219 188 164 158 164 176 180 180 178 168 161 169 158 139 130 125 123 123 125 124 124 126 132 136 129 116 109 109 106 107 104 108 106 106 104 104 101 102
233 246 245 250 258 245 256 245 230 258 268 275 145 155 171 177 185 189 181 173 168 171 172 164 148 144 134 127 124 124 127 133 138 140 143 141 132 129 122 116 114 111 114 114 112 111 107 103 99
234 249 256 254 247 242 231 262 243 259 260 152 146 171 180 181 182 173 171 178 185 186 181 167 157 153 139 135 132 132 136 135 134 140 147 148 144 142 135 127 123 121 124 126 123 119 115 105 103
252 267 277 249 229 228 211 272 241 252 168 163 175 189 187 187 179 186 185 182 182 185 179 170 165 149 144 139 135 138 144 140 139 144 149 151 149 148 142 135 129 132 133 127 119 111 107 100 96
234 238 252 250 215 212 181 248 268 242 170 193 196 193 190 195 193 196 180 174 163 160 166 169 160 147 146 139 135 134 141 139 141 145 146 150 153 154 144 139 138 141 136 130 123 121 113 101 95
218 232 237 264 212 167 185 243 284 67 144 196 207 187 173 144 37 27 113 143 152 155 151 153 145 148 147 134 124 119 126 131 140 142 145 153 155 158 150 145 145 145 135 132 134 126 128 124 110
224 230 236 241 235 162 208 244 305 4 114 154 140 130 152 173 276 6 67 93 110 126 128 136 134 133 132 124 109 99 98 109 127 142 154 158 158 159 153 147 148 146 136 137 137 135 119 123 122
221 226 248 251 225 197 220 249 278 343 72 64 32 26 296 258 328 43 61 74 75 78 100 124 132 137 136 135 140 137 143 142 141 147 158 162 162 160 156 149 147 150 154 156 150 139 133 125 125
251 250 242 264 197 203 223 254 270 123 118 120 86 30 347 349 6 22 40 52 73 88 96 122 141 147 155 156 151 143 135 136 144 140 144 162 167 168 167 156 158 161 156 154 158 147 143 137 150
255 231 228 233 322 204 180 285 278 312 57 46 41 34 20 11 334 355 26 37 47 55 109 148 154 150 153 144 124 104 85 75 90 140 169 172 174 174 171 169 162 167 166 171 172 167 158 160 168
253 244 231 227 209 257 190 249 274 275 17 18 4 0 349 336 336 359 17 22 12 338 19 106 131 143 146 142 153 159 167 180 194 189 189 173 177 178 178 174 168 169 170 173 180 176 171 162 171
252 272 238 216 202 245 224 214 292 26 349 327 332 339 341 338 331 337 340 342 1 10 33 67 111 120 139 153 166 171 178 181 160 149 171 188 182 184 184 179 172 175 178 178 177 176 177 173 172
281 20 65 102 151 235 223 185 296 344 292 318 334 346 351 353 358 7 12 31 26 25 33 40 65 70 127 159 174 180 181 173 166 180 190 200 195 187 195 187 183 181 180 183 186 183 182 183 174
57 84 31 338 223 239 158 156 249 325 13 9 347 351 358 5 15 21 24 25 20 21 23 27 42 32 43 153 188 194 191 185 191 199 201 203 203 205 206 200 193 188 184 181 180 181 187 184 180
250 168 180 214 216 266 144 194 236 1 16 16 24 27 19 14 10 10 16 20 19 14 17 24 24 15 13 16 223 203 187 186 200 204 205 209 215 218 201 198 197 189 181 180 178 184 192 185 188
314 230 210 150 61 210 229 316 330 1 12 13 17 21 15 8 8 6 10 12 14 7 1 4 9 3 357 344 306 215 191 191 196 201 205 213 214 211 192 196 199 192 184 182 177 189 195 187 193
102 154 85 151 178 222 276 305 315 340 345 355 2 2 1 5 5 7 8 6 3 0 358 10 10 351 342 344 329 293 248 215 201 193 203 210 208 206 196 195 198 195 189 183 182 189 192 189 196
15 31 84 155 166 174 216 281 337 309 322 334 344 356 358 357 359 2 3 1 3 7 8 7 5 356 350 341 332 324 289 247 216 213 216 216 213 208 211 206 197 198 196 188 188 195 192 196 197
47 40 79 153 247 155 153 275 352 8 5 0 352 357 357 3 6 5 2 4 7 7 4 359 353 348 341 333 323 301 291 263 237 246 240 216 216 215 214 210 201 204 200 193 194 198 197 198 201
Height
1499 1500 1502 1505 1509 1519 1517 1509 1505 1503 1502 1499 1500 1501 1502 1503 1507 1510 1504 1504 1507 1510 1513 1516 1519 1522 1524 1526 1528 1530 1532 1534 1536 1537 1539 1540 1541 1543 1544 1545 1547 1548 1549 1549 1550 1551 1552 1553 1554
1499 1501 1504 1504 1514 1522 1514 1505 1502 1498 1497 1497 1498 1499 1499 1500 1500 1501 1501 1504 1507 1510 1513 1516 1519 1521 1524 1526 1528 1530 1532 1534 1536 1538 1539 1540 1542 1543 1544 1546 1547 1548 1549 1550 1551 1552 1553 1554 1555
1498 1500 1503 1506 1514 1513 1505 1498 1497 1495 1496 1496 1497 1498 1498 1499 1499 1500 1502 1504 1507 1510 1513 1516 1519 1521 1524 1526 1528 1530 1532 1534 1536 1538 1539 1541 1542 1544 1545 1546 1547 1549 1550 1551 1552 1553 1554 1555 1556
1498 1501 1503 1508 1507 1502 1497 1494 1494 1494 1495 1495 1496 1497 1498 1499 1499 1500 1502 1504 1507 1510 1513 1516 1519 1521 1523 1526 1528 1530 1532 1534 1536 1538 1539 1541 1542 1544 1545 1547 1548 1549 1550 1551 1552 1553 1554 1555 1556
1497 1499 1505 1508 1503 1497 1494 1493 1493 1493 1494 1494 1495 1496 1497 1498 1498 1500 1502 1505 1507 1510 1513 1516 1519 1521 1523 1526 1528 1530 1532 1534 1536 1537 1539 1541 1542 1544 1545 1547 1548 1549 1551 1552 1553 1554 1555 1556 1557
1497 1499 1508 1505 1499 1495 1493 1492 1493 1493 1493 1493 1494 1496 1496 1498 1499 1501 1503 1505 1508 1511 1513 1516 1519 1521 1523 1525 1527 1529 1531 1533 1535 1537 1539 1541 1542 1544 1545 1547 1548 1549 1551 1552 1553 1554 1555 1556 1557
1496 1501 1503 1500 1498 1494 1491 1490 1491 1491 1492 1493 1493 1495 1495 1497 1499 1501 1503 1506 1508 1511 1513 1516 1518 1520 1522 1525 1527 1529 1531 1533 1535 1537 1539 1540 1542 1544 1545 1547 1548 1549 1551 1552 1553 1554 1556 1557 1558
1493 1498 1498 1498 1495 1492 1489 1488 1488 1489 1490 1491 1493 1493 1494 1496 1498 1500 1503 1506 1508 1511 1513 1515 1517 1519 1522 1524 1526 1528 1531 1533 1534 1536 1538 1540 1542 1543 1545 1546 1548 1549 1551 1552 1553 1555 1556 1557 1558
1491 1498 1496 1492 1491 1489 1487 1487 1487 1488 1488 1490 1491 1492 1493 1494 1496 1499 1502 1505 1507 1510 1512 1514 1516 1518 1521 1523 1525 1527 1530 1532 1534 1536 1538 1539 1541 1543 1545 1546 1547 1549 1550 1552 1553 1554 1556 1557 1559
1489 1492 1486 1485 1486 1485 1485 1486 1486 1487 1487 1488 1489 1490 1491 1493 1495 1497 1499 1502 1505 1507 1510 1513 1515 1517 1519 1522 1524 1526 1528 1530 1533 1535 1536 1538 1540 1542 1544 1545 1547 1548 1550 1551 1553 1554 1556 1557 1558
1485 1485 1482 1483 1483 1483 1484 1485 1485 1486 1487 1487 1487 1488 1490 1492 1494 1496 1498 1500 1503 1506 1509 1511 1514 1516 1518 1520 1523 1525 1527 1529 1531 1533 1535 1537 1539 1541 1543 1544 1546 1547 1549 1550 1552 1554 1555 1557 1558
1483 1481 1481 1481 1482 1482 1483 1483 1484 1484 1485 1485 1486 1487 1488 1490 1492 1494 1496 1499 1502 1504 1507 1510 1512 1515 1517 1519 1521 1524 1526 1528 1530 1532 1534 1536 1537 1539 1541 1543 1545 1546 1548 1549 1551 1553 1554 1556 1558
1480 1479 1479 1480 1480 1481 1481 1482 1482 1482 1483 1484 1484 1485 1487 1488 1491 1493 1496 1498 1500 1502 1505 1508 1510 1513 1515 1518 1520 1522 1524 1526 1528 1530 1532 1534 1536 1538 1540 1542 1543 1545 1547 1549 1550 1552 1554 1555 1557
1478 1478 1477 1478 1478 1479 1480 1480 1481 1479 1481 1482 1482 1483 1485 1487 1489 1491 1493 1496 1498 1500 1503 1506 1508 1511 1514 1516 1518 1520 1523 1524 1526 1528 1530 1532 1534 1536 1538 1540 1542 1544 1545 1547 1549 1551 1553 1554 1556
1477 1477 1476 1475 1476 1477 1479 1480 1478 1477 1479 1479 1480 1482 1484 1486 1487 1489 1491 1493 1496 1499 1501 1503 1506 1509 1511 1514 1516 1518 1521 1523 1525 1526 1528 1530 1532 1534 1536 1538 1540 1542 1544 1546 1548 1550 1551 1553 1555
1476 1477 1477 1473 1474 1475 1480 1479 1475 1476 1476 1477 1478 1480 1482 1484 1486 1488 1489 1492 1494 1497 1499 1501 1504 1506 1509 1511 1514 1516 1519 1521 1523 1525 1526 1528 1530 1532 1534 1536 1538 1540 1542 1544 1546 1548 1550 1551 1553
1477 1479 1477 1474 1472 1474 1477 1477 1475 1475 1475 1476 1477 1478 1480 1482 1483 1485 1487 1489 1492 1494 1497 1499 1502 1504 1506 1509 1512 1514 1516 1519 1521 1523 1525 1526 1528 1530 1532 1534 1536 1538 1540 1542 1544 1546 1548 1550 1551
1478 1479 1476 1476 1473 1474 1476 1477 1475 1474 1474 1475 1476 1477 1478 1480 1481 1483 1485 1487 1490 1492 1494 1497 1499 1502 1504 1507 1509 1512 1514 1516 1518 1520 1522 1524 1525 1527 1530 1531 1533 1535 1537 1539 1541 1544 1546 1548 1549
1475 1476 1477 1475 1473 1474 1475 1475 1475 1474 1474 1475 1476 1476 1477 1479 1480 1482 1483 1485 1487 1489 1492 1494 1497 1499 1502 1504 1506 1508 1511 1513 1516 1518 1520 1522 1523 1525 1527 1529 1531 1533 1535 1537 1539 1541 1543 1545 1547
1474 1475 1476 1474 1472 1474 1475 1476 1474 1473 1474 1475 1475 1476 1477 1477 1478 1479 1481 1483 1485 1487 1489 1492 1494 1497 1499 1501 1504 1506 1508 1510 1513 1515 1517 1519 1521 1523 1524 1526 1528 1530 1532 1534 1536 1538 1540 1542 1544
1471 1473 1474 1473 1473 1472 1474 1475 1475 1474 1474 1474 1475 1475 1476 1476 1477 1477 1479 1480 1482 1484 1487 1489 1491 1494 1496 1499 1501 1503 1505 1508 1510 1512 1514 1516 1518 1520 1521 1523 1525 1527 1529 1531 1533 1535 1537 1539 1541
1471 1469 1470 1471 1474 1476 1475 1478 1476 1474 1474 1474 1475 1475 1475 1476 1476 1476 1477 1478 1480 1482 1485 1487 1489 1491 1493 1496 1498 1500 1502 1504 1506 1509 1511 1513 1515 1516 1518 1520 1522 1524 1526 1528 1530 1532 1534 1536 1538
1470 1469 1469 1471 1474 1478 1477 1478 1478 1475 1476 1475 1475 1475 1474 1475 1475 1475 1476 1477 1479 1480 1482 1484 1486 1488 1490 1493 1495 1497 1499 1501 1503 1506 1507 1509 1511 1513 1515 1517 1519 1521 1523 1525 1527 1529 1531 1533 1535
1470 1471 1471 1473 1476 1478 1476 1480 1481 1480 1478 1476 1475 1474 1474 1474 1474 1474 1475 1476 1477 1478 1480 1481 1483 1485 1487 1489 1491 1493 1495 1497 1500 1502 1504 1506 1508 1510 1512 1514 1516 1518 1520 1522 1523 1525 1527 1529 1531
1472 1474 1479 1481 1481 1477 1475 1479 1482 1479 1477 1476 1476 1475 1474 1474 1473 1473 1473 1474 1475 1476 1477 1479 1481 1482 1484 1486 1488 1490 1492 1494 1496 1498 1500 1502 1504 1506 1508 1510 1512 1514 1516 1518 1520 1522 1524 1525 1527
1474 1475 1480 1482 1481 1479 1477 1481 1483 1479 1477 1476 1476 1475 1474 1474 1473 1473 1473 1473 1474 1475 1476 1477 1478 1480 1481 1483 1485 1487 1488 1490 1492 1494 1496 1498 1500 1502 1504 1506 1508 1510 1512 1514 1516 1518 1519 1521 1523
1476 1477 1477 1483 1485 1485 1483 1486 1483 1479 1477 1476 1475 1474 1474 1474 1473 1473 1473 1473 1473 1474 1475 1475 1476 1477 1479 1480 1482 1483 1485 1487 1488 1490 1492 1494 1496 1498 1500 1502 1504 1506 1508 1509 1511 1513 1515 1517 1519
1478 1479 1482 1483 1484 1484 1484 1487 1488 1484 1481 1479 1477 1476 1475 1475 1474 1473 1472 1472 1473 1473 1474 1474 1475 1476 1476 1477 1479 1480 1482 1483 1485 1487 1488 1490 1492 1494 1496 1497 1499 1501 1503 1505 1507 1509 1511 1513 1514
1482 1482 1482 1484 1483 1486 1490 1493 1487 1485 1483 1481 1479 1478 1477 1476 1475 1474 1473 1473 1472 1472 1473 1473 1473 1474 1474 1475 1476 1477 1478 1480 1482 1483 1484 1486 1487 1489 1491 1493 1495 1496 1498 1500 1502 1504 1506 1508 1509
1486 1487 1487 1488 1490 1490 1493 1496 1487 1486 1484 1483 1481 1480 1478 1477 1476 1475 1474 1473 1472 1471 1471 1471 1472 1472 1472 1473 1474 1474 1475 1477 1478 1479 1480 1482 1483 1485 1486 1488 1490 1492 1493 1495 1497 1499 1501 1503 1505